[Iaude] MPEC C139: 2024 CC3 [a=1.55,e=0.24,i=22.6,H=24.2]
    mpec at cfa.harvard.edu 
    mpec at cfa.harvard.edu
       
    Tue Feb 13 01:28:21 EST 2024
    
    
  
M.P.E.C. 2024-C139                            Issued 2024 February 13, 06:26 UT
     The Minor Planet Electronic Circulars contain information on unusual
         minor planets, routine data on comets and natural satellites,
         and occasional editorial announcements.  They are published
    on behalf of Division F of the International Astronomical Union by the
          Minor Planet Center, Smithsonian Astrophysical Observatory,
                          Cambridge, MA 02138, U.S.A.
			  
             Prepared using the Tamkin Foundation Computer Network
                              MPC at CFA.HARVARD.EDU
            URL https://www.minorplanetcenter.net/    ISSN 1523-6714
                                    2024 CC3                                    
Observations:
     K24C03C* C2024 02 09.39623510 06 02.209+27 53 43.31         21.57wXEC139F52
     K24C03C  C2024 02 09.42208310 05 55.384+27 51 33.56         21.35wXEC139F52
     K24C03C  C2024 02 09.43505010 05 51.964+27 50 28.22         21.88wXEC139F52
     K24C03C  C2024 02 09.52259010 05 28.702+27 43 02.51         22.03GVEC139F52
     K24C03C  C2024 02 09.52340910 05 28.473+27 42 58.57         21.82GVEC139F52
     K24C03C  C2024 02 10.41237510 01 49.855+26 26 12.76         21.50GVEC139F52
     K24C03C  C2024 02 10.41319510 01 49.672+26 26 09.16         22.38GVEC139F52
     K24C03C  C2024 02 11.52854109 57 08.889+24 46 07.93         22.08GVEC139F52
     K24C03C  C2024 02 11.52936109 57 08.666+24 46 03.61         21.85GVEC139F52
     K24C03C  C2024 02 13.23799509 50 02.602+22 05 17.44         21.1 GVEC139H01
     K24C03C  C2024 02 13.24137909 50 01.701+22 04 58.04         21.4 GVEC139H01
     K24C03C  C2024 02 13.25220709 49 58.824+22 03 55.72         21.6 GVEC139H01
     K24C03C  C2024 02 13.25914309 49 56.976+22 03 15.67         21.2 GVEC139H01
Observer details:
F52 Pan-STARRS 2, Haleakala.  Observers J. Herman, T. Lowe, P. Minguez, A.
    Schultz, I. Smith.  Measurers K. Chambers, T. de Boer, J. Fairlamb, H.
    Gao, M. Huber, C.-C. Lin, E. Magnier, Y. Ramanjooloo, R. Wainscoat, R.
    Weryk.  1.8-m Ritchey-Chretien + CCD.
H01 Magdalena Ridge Observatory, Socorro.  Observers W. H. Ryan, E. V. Ryan.
    Measurer W. H. Ryan.  2.4-m f/8.9 Ritchey-Chretien + CCD.
Orbital elements:
2024 CC3                                                 Earth MOID = 0.1913 AU
Epoch 2023 Sept. 13.0 TT = JDT 2460200.5                MPC                     
M 270.06063              (2000.0)            P               Q                  
n   0.51031526     Peri.  195.96858     -0.94402188     -0.25460850             
a   1.5508758      Node   326.88222     +0.32874215     -0.67325869             
e   0.2428441      Incl.   22.57624     +0.02740969     -0.69418819             
P   1.93           H   24.28          G   0.15           U   9                  
Residuals in seconds of arc
240209 F52  0.4+  0.2+    240210 F52  0.2-  0.4-    240213 H01  0.0   0.0
240209 F52  0.4+  0.3+    240210 F52  0.3+  0.3+    240213 H01  0.0   0.0
240209 F52  0.5+  0.4+    240211 F52  0.0   0.0     240213 H01  0.0   0.1-
240209 F52  0.1-  0.0     240211 F52  0.0   0.2+
240209 F52  0.3-  0.3+    240213 H01  0.0   0.0
Ephemeris:
2024 CC3                 a,e,i = 1.55, 0.24, 23                  q = 1.1743
Date    TT    R. A. (2000) Decl.     Delta      r    Elong.  Phase     V
2024 01 14    11 16 18.5 +47 50 51   0.3589  1.2431   129.5    37.6    24.0
...
2024 01 29    10 47 31.6 +40 09 53   0.2636  1.2109   145.3    27.6    23.0
...
2024 02 06    10 19 39.9 +32 19 53   0.2248  1.1975   158.0    17.9    22.4
...
2024 02 12    09 55 12.2 +24 02 44   0.2052  1.1893   169.3     8.9    21.8
2024 02 13    09 51 01.3 +22 28 24   0.2029  1.1881   171.0     7.4    21.7
2024 02 14    09 46 50.7 +20 51 19   0.2009  1.1869   172.5     6.2    21.6
...
2024 02 20    09 22 33.2 +10 30 26   0.1959  1.1810   168.3     9.8    21.7
...
2024 02 28    08 54 48.6 -03 03 45   0.2069  1.1759   151.2    23.9    22.3
...
2024 03 14    08 23 42.9 -20 54 45   0.2668  1.1753   127.3    42.3    23.4
A. U. Tomatic                (C) Copyright 2024 MPC           M.P.E.C. 2024-C139
    
    
More information about the Iaude
mailing list